SCP
0 -0 -0 -0 -0 -0 0 0 0 0 0 -0 -0 0 0 0 0 0 0 0 0 0 0 0 0 0 0 0 0 0 0 0 0
-0 -0 -0 -0 -0 -0 -0 -0 -0 -0 -0 -0 0 0 0 0 0 0 0 0 0 0 0 0 0 0 0 0 0 0 0 0 0
0 -0 0 -0 -0 -0 -0 -0 -0 -0 -0 -0 0 0 0 0 0 0 0 0 0 0 0 0 0 0 0 0 0 0 0 0 0
0 -0 -0 -0 -0 -1 -1 -0 -0 -1 -1 -0 0 0 0 0 0 0 0 0 0 0 0 0 0 0 0 0 0 0 0 0 0
0 0 -0 -0 -0 -0 -0 -0 -1 -1 -0 -0 0 0 0 0 0 0 0 0 0 0 0 0 0 0 0 0 0 0 0 0 0
0 0 0 0 -0 -0 -0 -0 -1 -1 -0 -1 1 1 0 0 0 0 0 0 0 0 0 0 0 0 0 0 0 0 0 0 0
0 0 0 0 0 0 -0 -0 -0 -1 -0 1 1 1 0 0 0 0 0 0 0 0 0 0 0 0 0 0 0 0 0 0 0
0 0 0 0 -0 0 0 0 0 0 0 1 2 1 0 0 0 0 0 0 0 0 0 0 0 0 0 0 0 0 0 0 0
0 0 0 0 0 0 0 0 0 0 1 2 3 1 1 1 0 0 0 0 0 0 0 0 0 0 0 0 0 0 0 0 0
0 0 0 0 0 0 0 0 0 0 1 2 3 2 2 1 0 0 0 0 0 0 0 0 0 0 0 0 0 0 0 0 0
0 0 0 0 0 0 0 0 0 0 1 2 3 3 2 0 0 0 0 0 0 0 0 -0 0 0 0 0 0 0 0 0 0
0 0 0 0 0 0 0 0 0 0 1 2 3 2 2 1 0 0 0 0 0 0 0 -0 0 0 0 0 0 0 0 0 0
0 0 0 0 0 0 0 0 0 1 1 2 2 2 1 1 1 1 0 0 0 0 0 0 0 0 0 0 0 0 0 0 0
0 0 0 0 0 0 0 0 0 0 0 1 1 0 0 0 0 0 0 0 0 0 0 0 0 0 0 0 0 0 0 0 0
0 0 0 0 0 0 0 0 0 0 0 0 0 0 0 0 0 0 0 0 0 0 0 0 0 0 0 0 0 0 0 0 0
0 0 0 0 0 0 0 0 0 0 0 0 0 0 0 0 0 0 0 0 0 0 0 0 0 0 0 0 0 0 0 0 0
0 0 0 0 0 0 0 -0 0 0 0 0 0 0 0 0 0 0 0 0 0 0 0 0 0 0 0 0 0 0 0 0 0
0 0 0 0 0 -0 -0 -0 -0 -0 0 0 0 0 0 0 0 0 0 0 0 0 0 0 0 0 0 0 0 0 0 0 0
0 0 0 0 0 -0 -0 -0 -0 0 -0 0 0 0 0 0 0 0 0 0 0 0 0 0 0 0 0 0 0 0 0 0 0
0 0 0 0 0 0 0 0 0 0 -0 0 0 0 0 0 0 0 0 0 0 0 0 0 0 0 0 0 0 0 0 0 0
Wind_Speed_500mb
59 74 89 94 92 91 89 85 80 78 79 78 75 69 63 54 47 40 32 32 31 30 30 25 21 18 17 19 19 16 17 16 17
70 82 94 98 96 96 94 91 89 87 87 84 80 77 69 63 54 45 36 33 31 31 31 29 24 22 22 21 20 20 20 18 17
72 83 82 92 97 98 103 96 94 91 90 89 88 83 79 72 65 54 41 36 34 32 29 30 29 28 25 24 20 18 19 21 20
73 84 87 92 97 99 102 105 104 101 95 94 95 92 89 83 77 65 54 45 40 37 33 34 33 30 28 26 23 21 20 18 21
71 80 87 89 88 92 97 103 108 112 103 100 100 100 95 91 85 75 66 57 45 40 39 36 33 30 30 30 27 22 18 16 18
60 68 74 80 79 86 90 94 103 111 113 110 104 105 101 97 93 85 77 63 54 42 40 38 35 34 33 31 22 20 17 17 19
58 70 79 79 79 81 80 84 90 97 105 112 112 108 105 105 101 99 90 66 56 43 41 40 39 36 32 29 23 20 20 23 25
55 64 70 77 81 80 75 76 81 88 94 96 105 111 110 110 106 102 96 74 46 51 48 42 39 37 38 35 30 25 26 27 29
63 71 82 79 77 74 72 70 74 79 83 82 88 95 105 105 101 100 93 57 23 62 47 45 48 45 54 44 37 28 27 33 36
71 79 84 79 73 64 57 54 57 61 63 69 76 82 86 89 90 92 91 64 35 63 65 55 62 61 60 49 40 34 37 41 42
73 76 71 63 53 46 33 26 28 38 45 55 62 67 73 75 78 80 88 76 52 70 75 71 71 65 58 49 42 39 47 44 49
44 44 41 33 26 23 12 11 19 24 32 39 46 53 60 63 67 68 77 64 53 54 77 80 74 58 48 39 41 53 49 52 52
22 30 33 34 30 17 14 9 11 13 18 27 37 43 48 42 48 61 73 58 46 56 80 74 53 40 28 45 56 58 57 52 45
42 35 26 18 13 4 9 20 23 26 20 16 19 23 30 29 30 43 65 43 46 56 56 59 49 45 41 59 64 59 61 47 42
50 42 32 27 17 14 19 27 28 22 29 22 14 12 16 19 27 38 39 43 47 37 28 14 30 51 56 41 56 59 46 35 33
47 43 40 36 42 46 46 33 30 23 22 17 6 4 11 18 21 25 22 19 17 19 21 26 53 41 24 29 38 37 35 33 34
28 22 22 23 38 41 46 42 33 16 10 9 10 16 16 14 15 14 27 26 22 27 40 40 31 27 30 25 32 32 33 33 31
28 21 17 18 16 24 28 27 19 11 1 13 19 9 16 18 31 35 36 33 33 40 30 32 34 24 23 25 26 27 29 31 32
23 20 21 24 24 24 23 20 14 10 7 16 13 24 25 31 37 41 39 39 33 30 26 24 19 22 21 20 23 27 28 29 30
26 27 25 24 22 14 9 6 5 8 21 19 20 20 33 35 40 36 39 41 22 26 22 23 21 17 15 18 20 19 18 18 20
Wind_Direction_500mb
208 209 220 224 226 223 222 221 219 217 213 213 212 216 218 219 224 229 236 243 235 234 236 242 242 240 246 258 260 254 256 256 258
208 212 218 222 224 224 225 222 220 219 215 215 216 217 217 217 220 225 231 240 232 229 233 234 231 240 244 246 249 258 254 260 267
211 217 214 218 223 224 223 226 225 222 220 218 219 220 221 222 221 221 225 235 233 226 222 225 233 242 244 245 248 252 255 263 275
209 213 217 222 225 227 227 227 225 225 224 223 224 224 224 224 225 222 224 230 233 230 229 232 236 240 244 250 250 251 258 269 281
213 219 222 225 227 228 229 229 227 228 228 228 230 229 229 229 228 226 225 227 232 227 228 231 231 235 241 243 248 250 261 275 278
214 217 223 225 226 228 230 231 231 231 231 232 234 233 232 232 230 228 228 228 230 229 230 229 227 228 233 236 231 245 259 271 275
216 217 222 224 226 229 233 236 237 237 238 237 236 237 236 235 232 230 227 225 227 235 239 233 229 229 233 234 231 242 257 265 273
212 216 220 224 228 229 236 239 242 244 245 244 242 241 242 241 238 229 227 210 217 251 242 241 245 246 247 237 235 240 258 267 272
213 218 220 223 230 235 241 244 248 250 252 251 251 250 250 246 241 231 219 203 231 240 240 237 241 233 241 241 242 244 258 270 271
213 220 224 221 225 232 239 246 255 261 266 261 258 258 254 249 247 236 220 208 201 229 231 235 232 237 239 241 249 253 263 268 272
214 220 224 217 216 224 234 245 257 267 269 267 262 261 256 252 246 241 225 209 252 243 223 232 236 244 244 244 253 264 270 274 271
234 228 207 194 178 148 161 227 259 271 276 273 267 265 258 253 252 248 224 218 258 242 225 237 243 248 250 261 269 273 277 278 278
157 160 150 153 152 157 213 267 286 292 299 285 273 272 264 261 260 242 224 246 249 223 229 241 246 241 246 259 269 277 280 272 281
108 109 109 107 122 113 325 298 289 280 276 280 271 274 264 258 253 241 230 239 225 229 237 239 246 237 256 267 261 275 276 275 277
89 85 76 66 57 24 358 341 318 321 282 257 286 283 255 235 216 213 223 229 230 213 215 222 247 256 274 248 259 273 277 273 275
64 63 55 42 28 18 7 343 330 315 269 245 249 209 211 202 192 198 213 202 227 238 221 269 266 267 267 267 267 263 264 272 272
27 14 2 341 334 326 329 332 332 326 255 197 136 131 161 176 189 221 217 191 196 236 250 244 243 256 258 268 263 265 268 266 266
23 21 12 360 9 352 7 7 353 357 127 146 130 198 220 249 257 230 216 212 226 231 256 228 256 245 269 270 266 266 265 269 272
16 13 12 357 359 12 7 7 24 64 106 169 269 238 231 218 212 211 218 227 241 245 241 245 240 268 260 257 263 268 266 265 266
8 358 344 328 329 336 18 70 89 166 180 197 199 192 186 198 205 245 237 247 242 222 245 236 239 227 239 257 260 258 261 268 272
Wind_Speed_850mb
59 74 89 94 92 91 89 85 80 78 79 78 75 69 63 54 47 40 32 32 31 30 30 25 21 18 17 19 19 16 17 16 17
70 82 94 98 96 96 94 91 89 87 87 84 80 77 69 63 54 45 36 33 31 31 31 29 24 22 22 21 20 20 20 18 17
72 83 82 92 97 98 103 96 94 91 90 89 88 83 79 72 65 54 41 36 34 32 29 30 29 28 25 24 20 18 19 21 20
73 84 87 92 97 99 102 105 104 101 95 94 95 92 89 83 77 65 54 45 40 37 33 34 33 30 28 26 23 21 20 18 21
71 80 87 89 88 92 97 103 108 112 103 100 100 100 95 91 85 75 66 57 45 40 39 36 33 30 30 30 27 22 18 16 18
60 68 74 80 79 86 90 94 103 111 113 110 104 105 101 97 93 85 77 63 54 42 40 38 35 34 33 31 22 20 17 17 19
58 70 79 79 79 81 80 84 90 97 105 112 112 108 105 105 101 99 90 66 56 43 41 40 39 36 32 29 23 20 20 23 25
55 64 70 77 81 80 75 76 81 88 94 96 105 111 110 110 106 102 96 74 46 51 48 42 39 37 38 35 30 25 26 27 29
63 71 82 79 77 74 72 70 74 79 83 82 88 95 105 105 101 100 93 57 23 62 47 45 48 45 54 44 37 28 27 33 36
71 79 84 79 73 64 57 54 57 61 63 69 76 82 86 89 90 92 91 64 35 63 65 55 62 61 60 49 40 34 37 41 42
73 76 71 63 53 46 33 26 28 38 45 55 62 67 73 75 78 80 88 76 52 70 75 71 71 65 58 49 42 39 47 44 49
44 44 41 33 26 23 12 11 19 24 32 39 46 53 60 63 67 68 77 64 53 54 77 80 74 58 48 39 41 53 49 52 52
22 30 33 34 30 17 14 9 11 13 18 27 37 43 48 42 48 61 73 58 46 56 80 74 53 40 28 45 56 58 57 52 45
42 35 26 18 13 4 9 20 23 26 20 16 19 23 30 29 30 43 65 43 46 56 56 59 49 45 41 59 64 59 61 47 42
50 42 32 27 17 14 19 27 28 22 29 22 14 12 16 19 27 38 39 43 47 37 28 14 30 51 56 41 56 59 46 35 33
47 43 40 36 42 46 46 33 30 23 22 17 6 4 11 18 21 25 22 19 17 19 21 26 53 41 24 29 38 37 35 33 34
28 22 22 23 38 41 46 42 33 16 10 9 10 16 16 14 15 14 27 26 22 27 40 40 31 27 30 25 32 32 33 33 31
28 21 17 18 16 24 28 27 19 11 1 13 19 9 16 18 31 35 36 33 33 40 30 32 34 24 23 25 26 27 29 31 32
23 20 21 24 24 24 23 20 14 10 7 16 13 24 25 31 37 41 39 39 33 30 26 24 19 22 21 20 23 27 28 29 30
26 27 25 24 22 14 9 6 5 8 21 19 20 20 33 35 40 36 39 41 22 26 22 23 21 17 15 18 20 19 18 18 20
Wind_Direction_850mb
208 209 220 224 226 223 222 221 219 217 213 213 212 216 218 219 224 229 236 243 235 234 236 242 242 240 246 258 260 254 256 256 258
208 212 218 222 224 224 225 222 220 219 215 215 216 217 217 217 220 225 231 240 232 229 233 234 231 240 244 246 249 258 254 260 267
211 217 214 218 223 224 223 226 225 222 220 218 219 220 221 222 221 221 225 235 233 226 222 225 233 242 244 245 248 252 255 263 275
209 213 217 222 225 227 227 227 225 225 224 223 224 224 224 224 225 222 224 230 233 230 229 232 236 240 244 250 250 251 258 269 281
213 219 222 225 227 228 229 229 227 228 228 228 230 229 229 229 228 226 225 227 232 227 228 231 231 235 241 243 248 250 261 275 278
214 217 223 225 226 228 230 231 231 231 231 232 234 233 232 232 230 228 228 228 230 229 230 229 227 228 233 236 231 245 259 271 275
216 217 222 224 226 229 233 236 237 237 238 237 236 237 236 235 232 230 227 225 227 235 239 233 229 229 233 234 231 242 257 265 273
212 216 220 224 228 229 236 239 242 244 245 244 242 241 242 241 238 229 227 210 217 251 242 241 245 246 247 237 235 240 258 267 272
213 218 220 223 230 235 241 244 248 250 252 251 251 250 250 246 241 231 219 203 231 240 240 237 241 233 241 241 242 244 258 270 271
213 220 224 221 225 232 239 246 255 261 266 261 258 258 254 249 247 236 220 208 201 229 231 235 232 237 239 241 249 253 263 268 272
214 220 224 217 216 224 234 245 257 267 269 267 262 261 256 252 246 241 225 209 252 243 223 232 236 244 244 244 253 264 270 274 271
234 228 207 194 178 148 161 227 259 271 276 273 267 265 258 253 252 248 224 218 258 242 225 237 243 248 250 261 269 273 277 278 278
157 160 150 153 152 157 213 267 286 292 299 285 273 272 264 261 260 242 224 246 249 223 229 241 246 241 246 259 269 277 280 272 281
108 109 109 107 122 113 325 298 289 280 276 280 271 274 264 258 253 241 230 239 225 229 237 239 246 237 256 267 261 275 276 275 277
89 85 76 66 57 24 358 341 318 321 282 257 286 283 255 235 216 213 223 229 230 213 215 222 247 256 274 248 259 273 277 273 275
64 63 55 42 28 18 7 343 330 315 269 245 249 209 211 202 192 198 213 202 227 238 221 269 266 267 267 267 267 263 264 272 272
27 14 2 341 334 326 329 332 332 326 255 197 136 131 161 176 189 221 217 191 196 236 250 244 243 256 258 268 263 265 268 266 266
23 21 12 360 9 352 7 7 353 357 127 146 130 198 220 249 257 230 216 212 226 231 256 228 256 245 269 270 266 266 265 269 272
16 13 12 357 359 12 7 7 24 64 106 169 269 238 231 218 212 211 218 227 241 245 241 245 240 268 260 257 263 268 266 265 266
8 358 344 328 329 336 18 70 89 166 180 197 199 192 186 198 205 245 237 247 242 222 245 236 239 227 239 257 260 258 261 268 272